Palacios, TX

4:43 AM CST on January 22, 2018 (GMT -0600)
Palacios Municipal

Weather History for KPSX - November, 2013

Change the Weather History Date:

Sunday, November 3, 2013

  Actual Average Record
Temperature  
Mean Temperature 59 °F -  
Max Temperature 73 °F 73 °F 87 °F (2012)
Min Temperature 45 °F 54 °F 30 °F (1951)
Degree Days  
Heating Degree Days 6    
Growing Degree Days 9 (Base 50)    
Moisture  
Dew Point 50 °F    
Average Humidity 71    
Maximum Humidity 90    
Minimum Humidity 48    
Precipitation  
Precipitation 0.00 in - - ()
Sea Level Pressure  
Sea Level Pressure 30.13 in    
Wind  
Wind Speed 8 mph (ENE)    
Max Wind Speed 13 mph    
Max Gust Speed 20 mph    
Visibility 10 miles    
Events      
Averages and records for this station are not official NWS values.
T = Trace of Precipitation, MM = Missing Value Source: NWS Daily Summary

Daily Weather History Graph

Daily Weather History Graph

Search for Another Location

Airport or City:

Trip Planner

Search our weather history database for the weather conditions in past years. The results will help you decide how hot, cold, wet, or windy it might be!

Date:

Astronomy

Nov. 03, 2013 Rise Set
Actual Time 6:38 AM CST 5:37 PM CST
Civil Twilight 6:14 AM CST 6:02 PM CST
Nautical Twilight 5:46 AM CST 6:30 PM CST
Astronomical Twilight 5:18 AM CST 6:58 PM CST
Moon 6:42 AM CST (11/3) 5:56 PM CST (11/3)
Length of Visible Light 11h 48m
Length of Day
10h 59m
New Moon, 0% of the Moon is Illuminated
Nov 3
New Moon
Nov 9
First Quarter
Nov 17
Full
Nov 25
Last Quarter
Dec 2
New

Hourly Weather History & Observations

Time (CST) Temp. Windchill Dew Point Humidity Pressure Visibility Wind Dir Wind Speed Gust Speed Precip Events Conditions
12:53 AM 50.0 °F - 46.0 °F 86% 30.21 in 10.0 mi NNE 5.8 mph - N/A   Clear
1:53 AM 50.0 °F - 46.0 °F 86% 30.21 in 10.0 mi North 5.8 mph - N/A   Clear
1:53 AM 48.9 °F - 45.0 °F 86% 30.19 in 10.0 mi NNE 6.9 mph - N/A   Clear
2:53 AM 48.9 °F - 44.1 °F 83% 30.18 in 10.0 mi NE 6.9 mph - N/A   Clear
3:53 AM 48.0 °F - 44.1 °F 86% 30.17 in 10.0 mi NE 5.8 mph - N/A   Clear
4:53 AM 46.9 °F - 43.0 °F 86% 30.18 in 10.0 mi NNE 4.6 mph - N/A   Clear
5:53 AM 46.0 °F 43.1 °F 42.1 °F 86% 30.18 in 10.0 mi NNE 5.8 mph - N/A   Clear
6:53 AM 45.0 °F 41.8 °F 42.1 °F 90% 30.18 in 10.0 mi NE 5.8 mph - N/A   Clear
7:53 AM 54.0 °F - 48.0 °F 80% 30.19 in 10.0 mi NE 8.1 mph - N/A   Clear
8:53 AM 61.0 °F - 51.1 °F 70% 30.18 in 10.0 mi ENE 10.4 mph - N/A   Clear
9:53 AM 66.9 °F - 50.0 °F 54% 30.18 in 10.0 mi ENE 11.5 mph - N/A   Clear
10:53 AM 70.0 °F - 52.0 °F 53% 30.17 in 10.0 mi East 11.5 mph - N/A   Clear
11:53 AM 72.0 °F - 53.1 °F 51% 30.14 in 10.0 mi East 11.5 mph 19.6 mph N/A   Clear
12:53 PM 72.0 °F - 51.1 °F 48% 30.11 in 10.0 mi ESE 10.4 mph - N/A   Partly Cloudy
1:53 PM 73.0 °F - 52.0 °F 48% 30.08 in 10.0 mi ESE 11.5 mph - N/A   Partly Cloudy
2:53 PM 73.0 °F - 53.1 °F 49% 30.07 in 10.0 mi SE 12.7 mph 16.1 mph N/A   Scattered Clouds
3:53 PM 72.0 °F - 53.1 °F 51% 30.06 in 10.0 mi ESE 11.5 mph 18.4 mph N/A   Scattered Clouds
4:53 PM 71.1 °F - 53.1 °F 53% 30.06 in 10.0 mi East 11.5 mph - N/A   Clear
5:53 PM 66.0 °F - 55.0 °F 68% 30.07 in 10.0 mi ENE 8.1 mph - N/A   Clear
6:53 PM 63.0 °F - 55.0 °F 75% 30.08 in 10.0 mi NE 8.1 mph - N/A   Mostly Cloudy
7:53 PM 63.0 °F - 57.0 °F 81% 30.09 in 10.0 mi NE 8.1 mph - N/A   Mostly Cloudy
8:53 PM 64.0 °F - 57.0 °F 78% 30.08 in 10.0 mi NE 6.9 mph - N/A   Overcast
9:53 PM 63.0 °F - 57.9 °F 84% 30.07 in 10.0 mi NE 5.8 mph - N/A   Mostly Cloudy
10:53 PM 63.0 °F - 57.9 °F 84% 30.07 in 10.0 mi NE 8.1 mph - N/A   Overcast